Location: Bittelbronn
(48.4454°N, 8.5870°E)
Time: 11:56:18
(UTC+00:00)

SJ 16-02 - Pass Details

Date: 29 April 2025
Orbit: 587 x 597 km, 75.0° (Epoch: 15 May)

Event Time Altitude Azimuth Distance (km) Brightness Sun altitude
Rises 19:36:43 0° 323° (NW) 2,851 6.4 -9.4°
Reaches altitude 10° 19:39:37 10° 303° (WNW) 1,943 5.6 -9.8°
Maximum altitude 19:42:21 17° 264° (W) 1,554 4.1 -10.1°
Drops below altitude 10° 19:45:04 10° 225° (SW) 1,934 4.0 -10.5°
Sets 19:47:57 0° 204° (SSW) 2,829 4.6 -10.9°
